Location: Auckland
(36.8670°S, 174.7670°E)
Time: 12:32:52
(UTC+12:00)

Tiros 1 despin weight - Pass Details

Date: 22 July 2019
Orbit: 594 x 642 km, 48.2° (Epoch: 20 August)

Event Time Altitude Azimuth Distance (km) Brightness Sun altitude
Rises 07:20:46 0° 246° (WSW) 2,889 - -2.1°
Exits shadow 07:21:24 - 249° (WSW) 2,660 ? -2.0°
Reaches altitude 10° 07:23:23 10° 259° (W) 1,987 ? -1.6°
Maximum altitude 07:27:06 25° 314° (NW) 1,271 ? -0.9°
Drops below altitude 10° 07:30:50 10° 8° (N) 1,995 ? -0.2°
Sets 07:33:29 0° 21° (NNE) 2,904 ? 0.2°
